Airport Information

KDLS - Columbia Gorge Regional - The Dalles Municipal Airport

KDLS 190353Z AUTO 30008KT CLR 23/12 A2974 RMK AO2 SLP070 T02330122 $


  • General Information

  • Coordinates: N 45°37'6"/ W 121°10'2"
  • Location: N/A
  • Surveyed Elevation: 247 MSL

Operations

Flow Name Active Runways Conditions

Green background denotes normal operations.


Common Frequencies

Callsign Frequency Position Name

More at the Document Center


Charts